• Em Portugal
  • Lista de países
  • Para 7 dias
  • Temperatura da água
  • Mapas de satélite
  • Mapa do tempo
  • Widgets de tempo
  • user-avatar
    Iniciar Sessão

    Previsão horária em Samsun

    Hoje, 11 Dezembro, Segunda-feira

    Tempo Temperatura Precipitação Vento Pressão Humidade
    00:00 +8°C° 0,3 mm 5 m/s 755 mmHg 81%
    01:00 +8°C° 0,3 mm 4 m/s 756 mmHg 84%
    02:00 +9°C° 0,3 mm 3 m/s 756 mmHg 86%
    03:00 +8°C° 0 mm 2 m/s 757 mmHg 88%
    04:00 +8°C° 0 mm 2 m/s 757 mmHg 89%
    05:00 +8°C° 0 mm 1 m/s 758 mmHg 90%
    06:00 +8°C° 0 mm 2 m/s 758 mmHg 89%
    07:00 +8°C° 0 mm 2 m/s 759 mmHg 87%
    08:00 +8°C° 0 mm 2 m/s 759 mmHg 86%
    09:00 +9°C° 0 mm 3 m/s 759 mmHg 79%
    10:00 +11°C° 0 mm 3 m/s 759 mmHg 72%
    11:00 +13°C° 0 mm 4 m/s 759 mmHg 66%
    12:00 +13°C° 0 mm 4 m/s 759 mmHg 64%
    13:00 +14°C° 0 mm 4 m/s 758 mmHg 62%
    14:00 +14°C° 0 mm 4 m/s 758 mmHg 60%
    15:00 +13°C° 0 mm 4 m/s 758 mmHg 66%
    16:00 +12°C° 0 mm 4 m/s 759 mmHg 72%
    17:00 +11°C° 0 mm 4 m/s 759 mmHg 77%
    18:00 +10°C° 0 mm 4 m/s 759 mmHg 76%
    19:00 +10°C° 0 mm 3 m/s 759 mmHg 75%
    20:00 +10°C° 0 mm 3 m/s 759 mmHg 74%
    21:00 +10°C° 0 mm 3 m/s 759 mmHg 74%
    22:00 +10°C° 0 mm 3 m/s 759 mmHg 73%
    23:00 +10°C° 0 mm 3 m/s 760 mmHg 73%

    Amanhã, 12 Dezembro, Terça-feira

    Tempo Temperatura Precipitação Vento Pressão Humidade
    00:00 +9°C° 0 mm 2 m/s 759 mmHg 73%
    01:00 +9°C° 0 mm 2 m/s 759 mmHg 73%
    02:00 +9°C° 0 mm 2 m/s 759 mmHg 73%
    03:00 +9°C° 0 mm 2 m/s 759 mmHg 73%
    04:00 +9°C° 0 mm 2 m/s 759 mmHg 73%
    05:00 +9°C° 0 mm 2 m/s 759 mmHg 73%
    06:00 +9°C° 0 mm 2 m/s 759 mmHg 71%
    07:00 +9°C° 0 mm 2 m/s 759 mmHg 70%
    08:00 +9°C° 0 mm 2 m/s 759 mmHg 68%
    09:00 +12°C° 0 mm 2 m/s 759 mmHg 61%
    10:00 +15°C° 0 mm 2 m/s 758 mmHg 54%
    11:00 +18°C° 0 mm 1 m/s 758 mmHg 47%
    12:00 +17°C° 0 mm 2 m/s 758 mmHg 46%
    13:00 +17°C° 0 mm 2 m/s 758 mmHg 44%
    14:00 +18°C° 0 mm 2 m/s 757 mmHg 43%
    15:00 +16°C° 0 mm 2 m/s 757 mmHg 49%
    16:00 +14°C° 0 mm 2 m/s 757 mmHg 54%
    17:00 +13°C° 0 mm 2 m/s 757 mmHg 60%
    18:00 +12°C° 0 mm 2 m/s 757 mmHg 59%
    19:00 +12°C° 0 mm 2 m/s 757 mmHg 58%
    20:00 +12°C° 0 mm 1 m/s 757 mmHg 57%
    21:00 +12°C° 0 mm 1 m/s 757 mmHg 57%
    22:00 +11°C° 0 mm 1 m/s 757 mmHg 56%
    23:00 +11°C° 0 mm 1 m/s 757 mmHg 56%

    Depois de amanhã, 13 Dezembro, Quarta-feira

    Tempo Temperatura Precipitação Vento Pressão Humidade
    00:00 +11°C° 0 mm 1 m/s 757 mmHg 56%
    01:00 +11°C° 0 mm 1 m/s 757 mmHg 56%
    02:00 +11°C° 0 mm 1 m/s 757 mmHg 55%
    03:00 +10°C° 0 mm 1 m/s 757 mmHg 55%
    04:00 +10°C° 0 mm 1 m/s 757 mmHg 55%
    05:00 +10°C° 0 mm 1 m/s 757 mmHg 55%
    06:00 +11°C° 0 mm 1 m/s 757 mmHg 54%
    07:00 +11°C° 0 mm 1 m/s 757 mmHg 54%
    08:00 +11°C° 0 mm 1 m/s 757 mmHg 54%
    09:00 +13°C° 0 mm 1 m/s 757 mmHg 49%
    10:00 +15°C° 0 mm 1 m/s 756 mmHg 45%
    11:00 +15°C° 0 mm 0 m/s 756 mmHg 40%
    12:00 +18°C° 0 mm 1 m/s 756 mmHg 40%
    13:00 +18°C° 0 mm 1 m/s 755 mmHg 40%
    14:00 +18°C° 0 mm 1 m/s 755 mmHg 40%
    15:00 +15°C° 0 mm 1 m/s 755 mmHg 46%
    16:00 +14°C° 0 mm 1 m/s 755 mmHg 51%
    17:00 +12°C° 0 mm 1 m/s 755 mmHg 57%
    18:00 +12°C° 0 mm 1 m/s 755 mmHg 57%
    19:00 +12°C° 0 mm 1 m/s 755 mmHg 57%
    20:00 +11°C° 0 mm 1 m/s 755 mmHg 57%
    21:00 +11°C° 0 mm 1 m/s 755 mmHg 57%
    22:00 +11°C° 0 mm 1 m/s 755 mmHg 57%
    23:00 +11°C° 0 mm 1 m/s 755 mmHg 57%

    14 Dezembro, Quinta-feira

    Tempo Temperatura Precipitação Vento Pressão Humidade
    00:00 +11°C° 0 mm 1 m/s 754 mmHg 58%
    01:00 +9°C° 0 mm 2 m/s 754 mmHg 58%
    02:00 +9°C° 0 mm 2 m/s 754 mmHg 58%
    03:00 +9°C° 0 mm 2 m/s 754 mmHg 58%
    04:00 +9°C° 0 mm 2 m/s 754 mmHg 59%
    05:00 +9°C° 0 mm 2 m/s 753 mmHg 59%
    06:00 +9°C° 0 mm 2 m/s 754 mmHg 59%
    07:00 +9°C° 0 mm 2 m/s 754 mmHg 59%
    08:00 +9°C° 0 mm 2 m/s 754 mmHg 59%
    09:00 +12°C° 0 mm 2 m/s 753 mmHg 53%
    10:00 +14°C° 0 mm 2 m/s 753 mmHg 48%
    11:00 +16°C° 0 mm 2 m/s 752 mmHg 43%
    12:00 +17°C° 0 mm 2 m/s 752 mmHg 42%
    13:00 +17°C° 0 mm 2 m/s 752 mmHg 42%
    14:00 +17°C° 0 mm 2 m/s 751 mmHg 41%
    15:00 +16°C° 0 mm 2 m/s 751 mmHg 45%
    16:00 +15°C° 0 mm 2 m/s 751 mmHg 48%
    17:00 +13°C° 0 mm 2 m/s 751 mmHg 51%
    18:00 +13°C° 0 mm 2 m/s 752 mmHg 51%
    19:00 +13°C° 0 mm 2 m/s 752 mmHg 50%
    20:00 +13°C° 0 mm 1 m/s 752 mmHg 50%
    21:00 +13°C° 0 mm 2 m/s 752 mmHg 51%
    22:00 +12°C° 0 mm 2 m/s 752 mmHg 53%
    23:00 +12°C° 0 mm 2 m/s 753 mmHg 54%

    15 Dezembro, Sexta-feira

    Tempo Temperatura Precipitação Vento Pressão Humidade
    00:00 +12°C° 0 mm 2 m/s 753 mmHg 55%
    01:00 +10°C° 0 mm 2 m/s 753 mmHg 56%
    02:00 +11°C° 0 mm 1 m/s 753 mmHg 57%
    03:00 +10°C° 0 mm 1 m/s 753 mmHg 58%
    04:00 +10°C° 0 mm 1 m/s 753 mmHg 59%
    05:00 +10°C° 0 mm 1 m/s 754 mmHg 59%
    06:00 +10°C° 0 mm 1 m/s 754 mmHg 59%
    07:00 +10°C° 0 mm 1 m/s 755 mmHg 59%
    08:00 +11°C° 0 mm 1 m/s 755 mmHg 58%
    09:00 +12°C° 0 mm 1 m/s 755 mmHg 53%
    10:00 +14°C° 0 mm 1 m/s 755 mmHg 49%
    11:00 +16°C° 0 mm 1 m/s 755 mmHg 44%
    12:00 +16°C° 0 mm 1 m/s 754 mmHg 44%
    13:00 +16°C° 0 mm 2 m/s 754 mmHg 45%
    14:00 +16°C° 0 mm 2 m/s 754 mmHg 45%
    15:00 +15°C° 0 mm 2 m/s 754 mmHg 52%
    16:00 +13°C° 0 mm 2 m/s 754 mmHg 59%
    17:00 +12°C° 0 mm 2 m/s 755 mmHg 65%
    18:00 +12°C° 0 mm 2 m/s 755 mmHg 64%
    19:00 +10°C° 0 mm 2 m/s 755 mmHg 62%
    20:00 +10°C° 0 mm 3 m/s 755 mmHg 61%
    21:00 +10°C° 0 mm 3 m/s 755 mmHg 59%
    22:00 +10°C° 0 mm 3 m/s 755 mmHg 57%
    23:00 +10°C° 0 mm 3 m/s 755 mmHg 55%

    16 Dezembro, Sábado

    Tempo Temperatura Precipitação Vento Pressão Humidade
    00:00 +10°C° 0 mm 3 m/s 755 mmHg 54%
    01:00 +9°C° 0 mm 3 m/s 754 mmHg 54%
    02:00 +9°C° 0 mm 3 m/s 754 mmHg 54%
    03:00 +9°C° 0 mm 3 m/s 754 mmHg 54%
    04:00 +9°C° 0 mm 3 m/s 754 mmHg 55%
    05:00 +9°C° 0 mm 3 m/s 754 mmHg 55%
    06:00 +9°C° 0 mm 3 m/s 754 mmHg 55%
    07:00 +9°C° 0 mm 3 m/s 754 mmHg 54%
    08:00 +10°C° 0 mm 3 m/s 754 mmHg 54%
    09:00 +12°C° 0 mm 3 m/s 754 mmHg 48%
    10:00 +14°C° 0 mm 3 m/s 753 mmHg 43%
    11:00 +17°C° 0 mm 3 m/s 753 mmHg 37%
    12:00 +18°C° 0 mm 3 m/s 753 mmHg 36%
    13:00 +18°C° 0 mm 3 m/s 752 mmHg 35%
    14:00 +19°C° 0 mm 3 m/s 752 mmHg 34%
    15:00 +17°C° 0 mm 3 m/s 752 mmHg 37%
    16:00 +14°C° 0 mm 3 m/s 753 mmHg 41%
    17:00 +13°C° 0 mm 3 m/s 753 mmHg 44%
    18:00 +12°C° 0 mm 3 m/s 753 mmHg 44%
    19:00 +12°C° 0 mm 3 m/s 753 mmHg 43%
    20:00 +11°C° 0 mm 3 m/s 753 mmHg 43%
    21:00 +11°C° 0 mm 3 m/s 753 mmHg 44%
    22:00 +11°C° 0 mm 3 m/s 753 mmHg 45%
    23:00 +11°C° 0 mm 3 m/s 753 mmHg 45%
    Mostrar mais